Flag for U.S.A. Weather past 2 weeks in Spartanburg, South Carolina, U.S.A.

Now
82 °F

Warm.


Feels Like: 87 °F
Forecast: 72 / 91 °F
Wind: 6 mph from North

Location: Spartanburg Memorial

Current Time: Jul 31, 2015 at 12:06:22 AM

Latest Report: Jul 30, 2015 at 11:35 PM


Visibility: 10 mi

Pressure: 29.95 "Hg

Humidity: 70%

Dew point: 72 °F

Location of SpartanburgLocation

Historic Weather in Spartanburg — Graph

°F

Spartanburg temperature yesterday

Maximum temperature yesterday: 97 °F (at 3:35 PM)
Minimum temperature yesterday: 73 °F (at 4:15 AM)
Average temperature yesterday: 84 °F

Past Weeks' High & Low Weather Summary

 TemperatureHumidityPressure
High97 °F (Jul 30, 3:35 PM)100% (Jul 18, 7:15 AM)30.10 "Hg (Jul 18, 7:15 AM)
Low70 °F (Jul 16, 5:35 AM)36% (Jul 27, 4:15 PM)29.77 "Hg (Jul 21, 3:55 PM)
Average81 °F74%29.96 "Hg
* Reported Jul 15 10:15 PM — Jul 30 10:35 PM, Spartanburg, Weather by CustomWeather, © 2015

Note: Actual official high and low records may vary slightly from our data, if they occured in-between our weather recording intervals... More about our weather records

Advertising

Spartanburg weather history for previous 24 hours

 ConditionsComfort  
Time TempWeatherWind HumidityBarometerVisibility
10:35 PM
Thu, Jul 30
84 °FWarm.3 mph70%29.94 "Hg10 mi
10:15 PM84 °FWarm.3 mph70%29.94 "Hg10 mi
9:55 PM84 °FWarm.3 mph70%29.93 "Hg10 mi
9:35 PM86 °FWarm.No wind62%29.92 "Hg10 mi
8:55 PM86 °FThundershowers. Cloudy.No wind70%29.90 "Hg10 mi
8:35 PM88 °FWarm.No wind59%29.90 "Hg10 mi
8:15 PM88 °FWarm.No wind62%29.90 "Hg10 mi
7:55 PM90 °FHot.No wind55%29.89 "Hg10 mi
7:35 PM91 °FHot.8 mph56%29.88 "Hg10 mi
6:55 PM95 °FExtremely hot.No wind47%29.87 "Hg7 mi
5:35 PM95 °FExtremely hot.3 mph44%29.89 "Hg10 mi
5:15 PM97 °FExtremely hot.No wind44%29.89 "Hg10 mi
4:55 PM97 °FExtremely hot.5 mph42%29.89 "Hg7 mi
4:35 PM95 °FExtremely hot.5 mph44%29.90 "Hg7 mi
4:15 PM97 °FExtremely hot.5 mph42%29.90 "Hg10 mi
3:55 PM97 °FExtremely hot.No wind42%29.91 "Hg10 mi
3:35 PM97 °FExtremely hot.5 mph42%29.92 "Hg7 mi
3:15 PM95 °FExtremely hot.6 mph44%29.93 "Hg10 mi
2:55 PM95 °FExtremely hot.No wind44%29.95 "Hg7 mi
2:35 PM95 °FExtremely hot.3 mph44%29.96 "Hg10 mi
2:15 PM95 °FExtremely hot.3 mph47%29.97 "Hg10 mi
1:55 PM95 °FExtremely hot.6 mph44%29.97 "Hg10 mi
1:35 PM93 °FExtremely hot.No wind49%29.98 "Hg10 mi
1:15 PM91 °FHot.No wind56%29.99 "Hg7 mi
12:55 PM93 °FExtremely hot.3 mph53%29.99 "Hg10 mi
12:35 PM91 °FHot.5 mph56%30.00 "Hg10 mi
12:15 PM90 °FHot.No wind59%30.00 "Hg7 mi
11:55 AM90 °FHot.3 mph63%30.01 "Hg10 mi
11:35 AM88 °FWarm.3 mph66%30.00 "Hg10 mi
11:15 AM88 °FWarm.3 mph66%30.00 "Hg10 mi
10:55 AM86 °FWarm.3 mph70%30.00 "Hg10 mi
10:35 AM86 °FWarm.3 mph70%30.00 "Hg10 mi
10:15 AM86 °FWarm.5 mph75%30.00 "Hg10 mi
9:55 AM84 °FWarm.6 mph79%30.00 "Hg10 mi
9:35 AM82 °FWarm.No wind84%30.00 "Hg10 mi
9:15 AM81 °FWarm.No wind89%30.00 "Hg10 mi
8:55 AM81 °FWarm.No wind84%29.99 "Hg10 mi
8:35 AM79 °FWarm.No wind89%29.99 "Hg10 mi
8:15 AM79 °FWarm.3 mph89%29.98 "Hg10 mi
7:55 AM77 °FWarm.3 mph89%29.98 "Hg7 mi
7:35 AM77 °FWarm.No wind89%29.99 "Hg7 mi
7:15 AM75 °FMild.3 mph94%29.98 "Hg7 mi
6:55 AM73 °FFog.3 mph100%29.98 "Hg5 mi
6:35 AM73 °FMild.No wind100%29.97 "Hg7 mi
6:15 AM73 °FMild.No wind100%29.97 "Hg7 mi
5:55 AM73 °FFog.No wind100%29.96 "Hg5 mi
5:35 AM75 °FMild.No wind94%29.95 "Hg7 mi
5:15 AM75 °FMild.No wind94%29.96 "Hg7 mi
4:55 AM73 °FMild.No wind100%29.96 "Hg7 mi
4:35 AM75 °FMild.No wind94%29.96 "Hg7 mi
4:15 AM73 °FMild.No wind100%29.97 "Hg7 mi
3:55 AM75 °FMild.No wind94%29.97 "Hg7 mi
3:35 AM77 °FWarm.No wind89%29.98 "Hg7 mi
3:15 AM77 °FWarm.No wind94%29.98 "Hg10 mi
2:55 AM75 °FMild.3 mph94%29.98 "Hg10 mi
2:35 AM77 °FWarm.No wind89%29.99 "Hg7 mi
2:15 AM77 °FWarm.No wind89%29.99 "Hg7 mi
1:55 AM77 °FWarm.No wind94%29.99 "Hg10 mi
1:35 AM77 °FWarm.No wind94%30.00 "Hg7 mi
1:15 AM77 °FWarm.No wind94%30.00 "Hg10 mi
12:55 AM77 °FWarm.No wind94%30.00 "Hg10 mi
12:35 AM77 °FWarm.No wind94%30.00 "Hg10 mi
Weather by CustomWeather, © 2015

See weather overviewHow to use our weather pages